Location: Edinburgh
(55.9500°N, 3.1600°W)
Time: 12:14:59
(UTC+00:00)

STRAND 1 - Visible Passes

Search period start: 11 February 2026 00:00
Search period end: 21 February 2026 00:00
Orbit: 763 x 774 km, 98.4° (Epoch: 10 February)

Date Brightness Start Highest point End Pass type
(mag) Time Alt. Az. Time Alt. Az. Time Alt. Az.
11 Feb ? 02:48:57 10° E 02:51:49 15° NE 02:54:40 10° NNE visible
11 Feb ? 04:24:55 10° SE 04:29:56 57° ENE 04:34:59 10° N visible
11 Feb ? 06:04:51 10° SSW 06:09:19 30° W 06:13:49 10° NNW visible
11 Feb ? 18:05:22 10° NNE 18:10:26 57° E 18:15:28 10° S visible
11 Feb ? 19:44:47 10° N 19:49:18 32° WNW 19:53:46 10° WSW visible
12 Feb ? 03:49:40 10° ESE 03:54:14 34° ENE 03:58:49 10° N visible
12 Feb ? 05:28:08 10° S 05:33:08 53° W 05:38:12 10° NNW visible
12 Feb ? 19:08:37 10° N 19:13:37 54° WNW 19:18:34 10° SW visible
12 Feb ? 20:49:01 10° NNW 20:51:40 14° NW 20:54:20 10° WNW visible
13 Feb ? 03:14:55 10° E 03:18:42 21° NE 03:22:29 10° N visible
13 Feb ? 04:52:01 10° SSE 04:57:09 87° ENE 05:02:19 10° NNW visible
13 Feb ? 06:33:17 10° SW 06:36:55 19° W 06:40:34 10° NW visible
13 Feb ? 18:32:36 10° NNE 18:37:46 87° ESE 18:42:53 10° SSW visible
13 Feb ? 20:12:23 10° N 20:16:16 22° NW 20:20:09 10° WSW visible
14 Feb ? 02:40:50 10° ENE 02:43:19 14° NE 02:45:47 10° NNE visible
14 Feb ? 04:16:23 10° SE 04:21:19 50° ENE 04:26:17 10° N visible
14 Feb ? 05:55:58 10° SSW 06:00:36 34° W 06:05:16 10° NNW visible
14 Feb ? 17:56:45 10° NNE 18:01:45 49° E 18:06:41 10° S visible
14 Feb ? 19:36:04 10° N 19:40:43 36° WNW 19:45:20 10° SW visible
14 Feb ? 21:17:48 10° NNW 21:18:27 10° NW 21:19:06 10° NW visible
15 Feb ? 03:41:15 10° ESE 03:45:40 30° ENE 03:50:06 10° N visible
15 Feb ? 05:19:23 10° S 05:24:28 61° WSW 05:29:34 10° NNW visible
15 Feb ? 18:59:56 10° N 19:05:00 61° WNW 19:10:01 10° SSW visible
15 Feb ? 20:40:09 10° N 20:43:10 16° NW 20:46:10 10° W visible
16 Feb ? 03:06:38 10° E 03:10:09 19° NE 03:13:42 10° N visible
16 Feb ? 04:43:24 10° SSE 04:48:30 77° ENE 04:53:39 10° NNW visible
16 Feb ? 06:24:12 10° SW 06:28:09 22° W 06:32:07 10° NW visible
16 Feb ? 18:23:57 10° NNE 18:29:06 77° ESE 18:34:13 10° SSW visible
16 Feb ? 20:03:36 10° N 20:07:43 25° NW 20:11:49 10° WSW visible
17 Feb ? 02:32:48 10° ENE 02:34:49 12° NE 02:36:49 10° NNE visible
17 Feb ? 04:07:52 10° SE 04:12:43 44° ENE 04:17:35 10° N visible
17 Feb ? 05:47:05 10° SSW 05:51:53 39° W 05:56:42 10° NNW visible
17 Feb ? 17:48:09 10° NNE 17:53:03 42° E 17:57:53 10° S visible
17 Feb ? 19:27:21 10° N 19:32:07 40° WNW 19:36:51 10° SW visible
17 Feb ? 21:08:23 10° NNW 21:09:57 11° NW 21:11:31 10° WNW visible
18 Feb ? 03:32:51 10° ESE 03:37:05 27° NE 03:41:21 10° N visible
18 Feb ? 05:10:40 10° S 05:15:47 70° WSW 05:20:56 10° NNW visible
18 Feb ? 06:53:10 10° WSW 06:55:49 14° W 06:58:28 10° NW visible
18 Feb ? 18:51:15 10° NNE 18:56:21 70° WNW 19:01:25 10° SSW visible
18 Feb ? 20:31:19 10° N 20:34:38 18° NW 20:37:57 10° W visible
19 Feb ? 02:58:22 10° E 03:01:37 17° NE 03:04:52 10° N visible
19 Feb ? 04:34:47 10° SSE 04:39:52 67° ENE 04:44:59 10° NNW visible
19 Feb ? 06:15:11 10° SW 06:19:23 25° W 06:23:37 10° NW visible
19 Feb ? 18:15:18 10° NNE 18:20:26 67° ESE 18:25:30 10° S visible
19 Feb ? 19:54:51 10° N 19:59:09 28° NW 20:03:25 10° WSW visible
20 Feb ? 02:24:54 10° NE 02:26:18 11° NE 02:27:42 10° NNE visible
20 Feb ? 03:59:23 10° SE 04:04:06 39° ENE 04:08:52 10° N visible
20 Feb ? 05:38:16 10° S 05:43:09 45° W 05:48:06 10° NNW visible
20 Feb ? 19:18:38 10° N 19:23:31 46° WNW 19:28:20 10° SW visible
20 Feb ? 20:59:19 10° NNW 21:01:27 13° NW 21:03:34 10° WNW visible
